Regional Weather Roundup
Issued by NWS

Home | Current Version | Previous Version | Text Only | Print | Product List | Glossary Off
Versions: 1 2 3 4 5 6 7 8 9 10 11 12 13 14 15 16 17 18 19 20 21 22 23 24 25 26 27 28 29 30 31 32 33 34 35 36 37 38 39 40 41 42 43 44 45 46 47 48 49 50

000
ASUS43 KFSD 080502
RWRSD

WEATHER ROUNDUP FOR SOUTH DAKOTA
NATIONAL WEATHER SERVICE SIOUX FALLS SD
1200 AM CDT WED JUL 08 2015

NOTE: "FAIR" INDICATES FEW OR NO CLOUDS BELOW 12,000 FEET WITH NO
SIGNIFICANT WEATHER AND/OR OBSTRUCTIONS TO VISIBILITY.


SDZ001>005-009-010-012>017-080600-
NORTHWEST AND NORTH CENTRAL SOUTH DAKOTA

CITY           SKY/WX    TMP DP  RH WIND       PRES   REMARKS
BUFFALO          N/A     60  57  89 NE6       29.92F
FAITH            N/A     65  56  72 SE12      29.98S
MOBRIDGE       MOCLDY    66  58  75 S14G23    29.99F
$$

SDZ012>016-024>037-041>051-057-063-072>074-080600-
SOUTHWEST AND SOUTH CENTRAL SOUTH DAKOTA

CITY           SKY/WX    TMP DP  RH WIND       PRES   REMARKS
RAPID CTY ARPT CLOUDY    65  57  75 W7        30.03F
PIERRE         PTCLDY    62  56  80 SE14      30.01F
CUSTER         CLOUDY    58  50  75 NW6       30.15R
ELLSWORTH AFB  DRIZZLE   64  61  89 SW9       30.01F
PHILIP         PTCLDY    64  57  78 S8        30.00F
PINE RIDGE     PTCLDY    64  51  62 S17G25    30.04F
WINNER         FAIR      61  53  75 SE12      30.06F
$$

SDZ004>011-016>023-039-040-080600-
NORTHEAST SOUTH DAKOTA

CITY           SKY/WX    TMP DP  RH WIND       PRES   REMARKS
ABERDEEN       CLEAR     55  50  83 SE8       30.06F
WATERTOWN      CLEAR     57  51  80 SE6       30.10S
BROOKINGS      CLEAR     55  48  76 SE7       30.14R
SISSETON         N/A     53  49  86 S8        30.08S
$$

SDZ017-020-022-023-036>040-048>070-080600-
SOUTHEAST SOUTH DAKOTA

CITY           SKY/WX    TMP DP  RH WIND       PRES   REMARKS
SIOUX FALLS    PTCLDY    58  51  78 E5        30.12R
HURON          CLEAR     57  51  80 SE8       30.07F
MITCHELL       CLEAR     59  54  83 S8        30.10S
YANKTON        CLEAR     57  52  82 CALM      30.10S
$$

ABBREVIATIONS USED IN REMARKS
   TC - TEMPERATURE IN CELSIUS
  WCI - WIND CHILL INDEX
   HX - HEAT INDEX
  VSB - VISIBILITY



USA.gov is the U.S. government's official web portal to all federal, state and local government web resources and services.